Regional Weather Roundup
Issued by NWS Midland/Odessa, TX

Skip options and go directly to product.
Home | Oldest Version | Previous Version | Current Version | All | Text Only | Save Text | Print | Product List | Glossary Off

Skip product version selection by date and time.   

553
ASUS44 KMAF 021610
RWRMAF
MIDLAND AREA WEATHER ROUNDUP
NATIONAL WEATHER SERVICE MIDLAND TX
1100 AM CDT THU OCT 02 2014

...IN SOUTHWEST TEXAS AND SOUTHEAST NEW MEXICO...

CITY           SKY/WX    TMP DP  RH WIND       PRES   REMARKS
ALPINE         SUNNY     78  39  24 NW14      30.16R
ANDREWS        FAIR      68  48  48 N16       30.03R
ARTESIA        NOT AVBL
BIG SPRING     SUNNY     74  52  46 NW7       29.98R
CARLSBAD       SUNNY     72  43  35 N10       30.06R
DRYDEN           N/A     80  69  69 NE6       29.94R
FORT STOCKTON  SUNNY     82  40  22 NW16G24   30.01R
GUAD PASS      SUNNY     65  40  39 SW9       30.18R
HOBBS          SUNNY     66  48  52 N14G21    30.07R
MARFA          SUNNY     75  39  27 W17G26    30.15R
MIDLAND AIRPK  SUNNY     71  49  46 N12G17    30.00R
MIDLAND INTL   SUNNY     72  48  42 N15       29.99R
ODESSA         SUNNY     72  47  40 N14       30.01R
PECOS          SUNNY     77  44  30 NW15      30.02R
PRESIDIO       FAIR      79  51  36 CALM      30.02R
SEMINOLE       SUNNY     66  49  54 N12G18    30.04R
SNYDER         SUNNY     70  52  53 NW13      29.95R
WINK           SUNNY     77  43  29 N16       30.00R
$$
...OTHER STATIONS IN TEXAS...

CITY           SKY/WX    TMP DP  RH WIND       PRES   REMARKS
ABILENE        SUNNY     85  67  54 SW17      29.87R
AMARILLO       MOSUNNY   59  45  59 N21G32    30.04R
AUSTIN         CLOUDY    83  74  74 S15G23    29.88S
BROWNSVILLE    MOSUNNY   88  78  72 S20G25    29.88S HX 101
CORPUS CHRISTI PTSUNNY   87  78  74 S21G28    29.88S HX 100
DALLAS FTW     PTSUNNY   86  72  62 S17G24    29.82R
DEL RIO        CLOUDY    80  74  81 SE6       29.88R
EL PASO        SUNNY     73  37  27 N15       30.11R
HOUSTON INT    MOSUNNY   87  75  67 S13G21    29.91S
LUBBOCK        MOSUNNY   66  48  52 N18G28    30.01R
SAN ANGELO     SUNNY     85  68  56 SW21G26   29.89S
SAN ANTONIO    PTSUNNY   84  73  69 S12       29.91R
WACO           CLOUDY    85  73  67 S18G24    29.85S
WICHITA FALLS  NOT AVBL
$$
...OTHER LOCATIONS IN NEW MEXICO...

CITY           SKY/WX    TMP DP  RH WIND       PRES   REMARKS
ALAMAGORDO     SUNNY     68  39  34 N14       30.13R
ALBUQUERQUE    SUNNY     54  27  35 N17G25    30.25R
CANNON AFB     SUNNY     59  42  52 N18G28    30.10R
CLOVIS           N/A     59  41  51 N25       30.13R
HOLLOMAN AFB   SUNNY     68  39  34 N15       30.12R
ROSWELL        SUNNY     73  40  30 NW22      30.06R
RUIDOSO        SUNNY     55  32  41 NW13G24   30.24R
SANTA FE       SUNNY     54  27  35 N18       30.22R
TRUTH OR CONSE SUNNY     66  36  32 NW14G20   30.16R
TUCUMCARI      PTSUNNY   63  40  42 N12       30.12R
$$

USA.gov is the U.S. government's official web portal to all federal, state and local government web resources and services.